Location: B?jaj?g
(11.7167°N, 92.6667°E)
Time: 07:13:33
(UTC+00:00)

Atlas Centaur 2 - Pass Details

Date: 18 September 2020
Orbit: 459 x 1310 km, 30.4° (Epoch: 19 October)

Event Time Altitude Azimuth Distance (km) Brightness Sun altitude
Rises 12:44:08 0° 282° (WNW) 3,956 7.6 -14.5°
Reaches altitude 10° 12:47:42 10° 269° (W) 2,851 6.3 -15.4°
Maximum altitude 12:53:04 24° 218° (SW) 1,790 4.3 -16.7°
Drops below altitude 10° 12:57:35 10° 165° (SSE) 2,357 4.3 -17.8°
Enters shadow 12:58:44 - 158° (SSE) 2,670 4.5 -18.1°
